Location: Ethel Rock
(53.4667°N, 4.5667°W)
Time: 01:00:50
(UTC+00:00)

ARIANE 5 R/B - Pass Details

Date: 24 October 2020
Orbit: 748 x 795 km, 98.6° (Epoch: 26 November)

Event Time Altitude Azimuth Distance (km) Brightness Sun altitude
Rises 03:01:28 0° 18° (NNE) 3,210 6.3 -35.4°
Reaches altitude 10° 03:03:50 10° 24° (NNE) 2,282 5.5 -35.1°
Enters shadow 03:06:41 32° 42° (NE) 1,278 4.0 -34.7°
